Flag for USA

Past Weather in 41°35'10"N, 87°41'33"W, USA — Yesterday and Last 2 Weeks

Now
78 °F

Passing clouds.


Feels Like: 79 °F
Forecast: 76 / 56 °F
Wind: 6 mph from West

Location: Chicago Midway Airport
Current Time: Sep 22, 2020 at 3:55:47 pm
Latest Report: Sep 22, 2020 at 2:53 pm
Visibility: 10 mi
Pressure30.10 "Hg
Humidity: 42%
Dew Point: 53 °F
Location of 41°35'10"N, 87°41'33"WLocation

Past Weather in 41°35'10"N, 87°41'33"W — Graph

°F

41°35'10"N, 87°41'33"W Temperature Yesterday

Maximum temperature yesterday: 75 °F (at 3:53 pm)
Minimum temperature yesterday: 52 °F (at 6:53 am)
Average temperature yesterday: 64 °F

High & Low Weather Summary for the Past Weeks

 TemperatureHumidityPressure
High83 °F (Sep 16, 3:53 pm)100% (Sep 8, 4:53 am)30.44 "Hg (Sep 8, 4:53 am)
Low48 °F (Sep 19, 4:53 am)25% (Sep 20, 3:53 pm)29.85 "Hg (Sep 7, 1:53 pm)
Average64 °F68%30.18 "Hg
* Reported Sep 7 1:53 pm — Sep 22 1:53 pm, 41°35'10"N, 87°41'33"W. Weather by CustomWeather, © 2020

Note: Actual official high and low records may vary slightly from our data, if they occured in-between our weather recording intervals... More about our weather records

41°35'10"N, 87°41'33"W Weather History for the Previous 24 Hours

Scroll right to see more
 ConditionsComfort  
Time TempWeatherWind HumidityBarometerVisibility
1:53 pm
Tue, Sep 22
77 °FPassing clouds.10 mph42%30.12 "Hg10 mi
12:53 pm76 °FPassing clouds.10 mph45%30.15 "Hg10 mi
11:53 am75 °FScattered clouds.8 mph47%30.17 "Hg10 mi
10:53 am70 °FPartly sunny.5 mph53%30.20 "Hg10 mi
9:53 am66 °FPartly sunny.6 mph56%30.21 "Hg10 mi
8:53 am62 °FScattered clouds.7 mph62%30.22 "Hg10 mi
7:53 am56 °FScattered clouds.7 mph70%30.22 "Hg10 mi
6:53 am55 °FScattered clouds.3 mph69%30.22 "Hg10 mi
5:53 am56 °FPassing clouds.5 mph65%30.22 "Hg10 mi
4:53 am57 °FPassing clouds.3 mph62%30.21 "Hg10 mi
3:53 am57 °FPassing clouds.No wind60%30.21 "Hg10 mi
2:53 am58 °FPassing clouds.3 mph58%30.22 "Hg10 mi
1:53 am60 °FPassing clouds.5 mph52%30.22 "Hg10 mi
12:53 am61 °FClear.5 mph50%30.23 "Hg10 mi
11:53 pm
Mon, Sep 21
63 °FClear.8 mph47%30.23 "Hg10 mi
10:53 pm65 °FClear.7 mph47%30.23 "Hg10 mi
9:53 pm64 °FClear.3 mph68%30.24 "Hg10 mi
8:53 pm64 °FPassing clouds.6 mph70%30.24 "Hg10 mi
7:53 pm67 °FPassing clouds.6 mph61%30.24 "Hg10 mi
6:53 pm73 °FPassing clouds.3 mph29%30.24 "Hg10 mi
5:53 pm74 °FScattered clouds.6 mph31%30.24 "Hg10 mi
4:53 pm75 °FScattered clouds.10 mph31%30.25 "Hg10 mi
3:53 pm75 °FScattered clouds.8 mph31%30.27 "Hg10 mi
Weather by CustomWeather, © 2020

See weather overview